• In Germany
  • List of Countries
  • For 7 days
  • Water Temperature
  • Satellite Maps
  • Weather Map
  • Weather Widgets
  • user-avatar
    Login

    Hourly Weather Mingachevir

    Today, 18 October, Wednesday

    Time Temperature Precipitation Wind Pressure Humidity
    00:00 +14°C° 0 mm 2 mps 756 mmHg 53%
    01:00 +14°C° 0 mm 2 mps 756 mmHg 54%
    02:00 +14°C° 0 mm 1 mps 756 mmHg 54%
    03:00 +14°C° 0 mm 1 mps 756 mmHg 54%
    04:00 +14°C° 0 mm 1 mps 756 mmHg 54%
    05:00 +13°C° 0 mm 1 mps 756 mmHg 55%
    06:00 +13°C° 0 mm 1 mps 757 mmHg 55%
    07:00 +15°C° 0 mm 1 mps 757 mmHg 51%
    08:00 +18°C° 0 mm 1 mps 757 mmHg 47%
    09:00 +18°C° 0 mm 2 mps 757 mmHg 43%
    10:00 +19°C° 0 mm 2 mps 757 mmHg 41%
    11:00 +20°C° 0 mm 2 mps 757 mmHg 39%
    12:00 +21°C° 0 mm 2 mps 757 mmHg 37%
    13:00 +22°C° 0 mm 3 mps 757 mmHg 37%
    14:00 +22°C° 0 mm 3 mps 757 mmHg 37%
    15:00 +22°C° 0 mm 3 mps 757 mmHg 37%
    16:00 +21°C° 0 mm 3 mps 758 mmHg 41%
    17:00 +19°C° 0 mm 3 mps 758 mmHg 46%
    18:00 +18°C° 0 mm 3 mps 758 mmHg 51%
    19:00 +18°C° 0 mm 3 mps 759 mmHg 53%
    20:00 +17°C° 0 mm 3 mps 759 mmHg 55%
    21:00 +16°C° 0 mm 3 mps 759 mmHg 58%
    22:00 +16°C° 0 mm 3 mps 759 mmHg 61%
    23:00 +15°C° 0 mm 2 mps 759 mmHg 65%

    Tomorrow, 19 October, Thursday

    Time Temperature Precipitation Wind Pressure Humidity
    00:00 +15°C° 0 mm 2 mps 759 mmHg 69%
    01:00 +15°C° 0 mm 2 mps 759 mmHg 70%
    02:00 +14°C° 0 mm 1 mps 759 mmHg 70%
    03:00 +14°C° 0 mm 1 mps 759 mmHg 71%
    04:00 +14°C° 0 mm 1 mps 759 mmHg 72%
    05:00 +14°C° 0 mm 1 mps 759 mmHg 72%
    06:00 +14°C° 0 mm 1 mps 759 mmHg 72%
    07:00 +15°C° 0 mm 1 mps 759 mmHg 70%
    08:00 +16°C° 0 mm 1 mps 759 mmHg 67%
    09:00 +17°C° 0 mm 2 mps 759 mmHg 64%
    10:00 +18°C° 0 mm 2 mps 758 mmHg 62%
    11:00 +19°C° 0 mm 2 mps 758 mmHg 59%
    12:00 +20°C° 0 mm 2 mps 757 mmHg 57%
    13:00 +20°C° 0 mm 2 mps 757 mmHg 55%
    14:00 +20°C° 0 mm 2 mps 756 mmHg 54%
    15:00 +22°C° 0 mm 1 mps 756 mmHg 52%
    16:00 +21°C° 0 mm 1 mps 756 mmHg 56%
    17:00 +20°C° 0 mm 1 mps 756 mmHg 60%
    18:00 +17°C° 0 mm 0 mps 756 mmHg 64%
    19:00 +16°C° 0 mm 0 mps 756 mmHg 65%
    20:00 +16°C° 0 mm 0 mps 756 mmHg 67%
    21:00 +16°C° 0 mm 0 mps 757 mmHg 68%
    22:00 +15°C° 0 mm 0 mps 756 mmHg 68%
    23:00 +15°C° 0 mm 0 mps 756 mmHg 69%

    Day after tomorrow, 20 October, Friday

    Time Temperature Precipitation Wind Pressure Humidity
    00:00 +15°C° 0 mm 0 mps 756 mmHg 69%
    01:00 +15°C° 0 mm 1 mps 756 mmHg 69%
    02:00 +15°C° 0 mm 1 mps 755 mmHg 69%
    03:00 +15°C° 0 mm 1 mps 755 mmHg 68%
    04:00 +15°C° 0 mm 1 mps 755 mmHg 68%
    05:00 +14°C° 0 mm 1 mps 755 mmHg 67%
    06:00 +14°C° 0 mm 1 mps 755 mmHg 66%
    07:00 +16°C° 0 mm 1 mps 755 mmHg 61%
    08:00 +19°C° 0 mm 1 mps 755 mmHg 55%
    09:00 +20°C° 0 mm 1 mps 755 mmHg 50%
    10:00 +21°C° 0 mm 1 mps 755 mmHg 47%
    11:00 +21°C° 0 mm 2 mps 754 mmHg 43%
    12:00 +23°C° 0 mm 2 mps 754 mmHg 40%
    13:00 +24°C° 0 mm 1 mps 753 mmHg 39%
    14:00 +24°C° 0 mm 1 mps 753 mmHg 38%
    15:00 +24°C° 0 mm 1 mps 753 mmHg 37%
    16:00 +23°C° 0 mm 1 mps 753 mmHg 41%
    17:00 +22°C° 0 mm 1 mps 753 mmHg 45%
    18:00 +21°C° 0 mm 1 mps 754 mmHg 49%
    19:00 +20°C° 0 mm 1 mps 754 mmHg 50%
    20:00 +20°C° 0 mm 1 mps 754 mmHg 51%
    21:00 +19°C° 0 mm 1 mps 754 mmHg 52%
    22:00 +19°C° 0 mm 1 mps 754 mmHg 53%
    23:00 +18°C° 0 mm 1 mps 754 mmHg 54%

    21 October, Saturday

    Time Temperature Precipitation Wind Pressure Humidity
    00:00 +18°C° 0 mm 1 mps 754 mmHg 56%
    01:00 +16°C° 0 mm 1 mps 754 mmHg 56%
    02:00 +16°C° 0 mm 1 mps 754 mmHg 57%
    03:00 +16°C° 0 mm 1 mps 754 mmHg 58%
    04:00 +16°C° 0 mm 1 mps 754 mmHg 58%
    05:00 +15°C° 0 mm 1 mps 754 mmHg 58%
    06:00 +15°C° 0 mm 1 mps 754 mmHg 58%
    07:00 +18°C° 0 mm 1 mps 754 mmHg 54%
    08:00 +19°C° 0 mm 1 mps 754 mmHg 49%
    09:00 +21°C° 0 mm 1 mps 754 mmHg 45%
    10:00 +22°C° 0 mm 1 mps 753 mmHg 42%
    11:00 +23°C° 0 mm 2 mps 753 mmHg 40%
    12:00 +24°C° 0 mm 2 mps 752 mmHg 38%
    13:00 +24°C° 0 mm 2 mps 752 mmHg 37%
    14:00 +24°C° 0 mm 2 mps 752 mmHg 36%
    15:00 +24°C° 0 mm 2 mps 751 mmHg 36%
    16:00 +23°C° 0 mm 1 mps 751 mmHg 40%
    17:00 +22°C° 0 mm 1 mps 752 mmHg 43%
    18:00 +19°C° 0 mm 0 mps 752 mmHg 47%
    19:00 +18°C° 0 mm 0 mps 752 mmHg 48%
    20:00 +18°C° 0 mm 0 mps 752 mmHg 49%
    21:00 +19°C° 0 mm 1 mps 752 mmHg 50%
    22:00 +19°C° 0 mm 1 mps 752 mmHg 50%
    23:00 +18°C° 0 mm 1 mps 752 mmHg 50%

    22 October, Sunday

    Time Temperature Precipitation Wind Pressure Humidity
    00:00 +18°C° 0 mm 1 mps 752 mmHg 50%
    01:00 +18°C° 0 mm 1 mps 752 mmHg 50%
    02:00 +16°C° 0 mm 1 mps 752 mmHg 49%
    03:00 +16°C° 0 mm 1 mps 752 mmHg 49%
    04:00 +16°C° 0 mm 1 mps 753 mmHg 48%
    05:00 +16°C° 0 mm 1 mps 753 mmHg 48%
    06:00 +15°C° 0 mm 2 mps 753 mmHg 48%
    07:00 +17°C° 0 mm 2 mps 754 mmHg 44%
    08:00 +18°C° 0 mm 2 mps 754 mmHg 40%
    09:00 +20°C° 0 mm 2 mps 754 mmHg 36%
    10:00 +20°C° 0 mm 2 mps 754 mmHg 34%
    11:00 +21°C° 0 mm 2 mps 754 mmHg 32%
    12:00 +23°C° 0 mm 2 mps 754 mmHg 30%
    13:00 +23°C° 0 mm 2 mps 754 mmHg 30%
    14:00 +23°C° 0 mm 2 mps 754 mmHg 31%
    15:00 +23°C° 0 mm 2 mps 754 mmHg 31%
    16:00 +21°C° 0.1 mm 3 mps 754 mmHg 38%
    17:00 +20°C° 0.1 mm 4 mps 755 mmHg 45%
    18:00 +18°C° 0.1 mm 4 mps 756 mmHg 51%
    19:00 +17°C° 0.2 mm 5 mps 756 mmHg 57%
    20:00 +16°C° 0.2 mm 5 mps 756 mmHg 63%
    21:00 +15°C° 0.2 mm 6 mps 757 mmHg 69%
    22:00 +15°C° 0.1 mm 6 mps 757 mmHg 70%
    23:00 +14°C° 0.1 mm 6 mps 757 mmHg 71%

    23 October, Monday

    Time Temperature Precipitation Wind Pressure Humidity
    00:00 +14°C° 0.1 mm 5 mps 757 mmHg 72%
    01:00 +14°C° 0.1 mm 5 mps 757 mmHg 73%
    02:00 +13°C° 0.1 mm 4 mps 757 mmHg 73%
    03:00 +13°C° 0.1 mm 4 mps 757 mmHg 74%
    04:00 +13°C° 0 mm 3 mps 757 mmHg 74%
    05:00 +13°C° 0 mm 3 mps 757 mmHg 75%
    06:00 +12°C° 0 mm 3 mps 758 mmHg 75%
    07:00 +13°C° 0 mm 3 mps 757 mmHg 74%
    08:00 +14°C° 0 mm 2 mps 757 mmHg 72%
    09:00 +14°C° 0 mm 2 mps 757 mmHg 70%
    10:00 +15°C° 0 mm 2 mps 757 mmHg 68%
    11:00 +15°C° 0 mm 2 mps 756 mmHg 66%
    12:00 +16°C° 0 mm 2 mps 756 mmHg 64%
    13:00 +16°C° 0 mm 2 mps 755 mmHg 63%
    14:00 +18°C° 0 mm 1 mps 755 mmHg 62%
    15:00 +18°C° 0 mm 1 mps 754 mmHg 61%
    16:00 +16°C° 0 mm 1 mps 755 mmHg 64%
    17:00 +16°C° 0 mm 1 mps 755 mmHg 68%
    18:00 +15°C° 0 mm 1 mps 755 mmHg 71%
    19:00 +15°C° 0 mm 1 mps 755 mmHg 72%
    20:00 +13°C° 0 mm 0 mps 755 mmHg 74%
    21:00 +13°C° 0 mm 0 mps 755 mmHg 75%
    22:00 +13°C° 0 mm 0 mps 755 mmHg 76%
    23:00 +13°C° 0 mm 0 mps 755 mmHg 78%
    Show more